Location: Navajo
(48.7922°N, 105.0603°W)
Time: 03:44:18
(UTC+00:00)

CUBEBUG 2 - Pass Details

Date: 06 July 2022
Orbit: 584 x 692 km, 97.7° (Epoch: 11 August)

Event Time Altitude Azimuth Distance (km) Brightness Sun altitude
Rises 09:02:59 0° 26° (NNE) 2,852 ? -13.8°
Reaches altitude 10° 09:05:37 10° 43° (NE) 1,958 ? -13.6°
Maximum altitude 09:08:49 21° 92° (E) 1,407 ? -13.4°
Drops below altitude 10° 09:12:04 10° 141° (SE) 1,991 ? -13.1°
Enters shadow 09:13:57 - 154° (SSE) 2,617 ? -13.0°
